User: anonymous   Login
Location: Byszew
(52.1813°N, 19.2693°E)
Time: 15:48:11
(UTC+00:00)
Language:

Cosmos 1602 - Orbit

View from above orbital plane
View from above orbital plane
View from above satellite
View from above satellite

Ground track
Ground track

The orbit data is extracted from the following two-line orbital elements,

1 15331U 84105A   21132.15741037  .00000131  00000-0  53666-5 0  9994
2 15331  82.5392   7.1787 0015770  47.4970 312.7591 15.14315689997416
Epoch (UTC): 12 May 2021 03:46:40
Eccentricity: 0.0015770
inclination: 82.5392°
perigee height: 512 km
apogee height: 534 km
right ascension of ascending node: 7.1787°
argument of perigee: 47.4970°
revolutions per day: 15.14315689
mean anomaly at epoch: 312.7591°
orbit number at epoch: 99741

The dashed part of the orbit path shows where the satellite is in the earth's shadow,  

DLR